QPF
0.00 0.00 0.00 0.00 0.00 0.00 0.00 0.00 0.00 0.00 0.00 0.00 0.00 0.00 0.04 0.06 0.15 0.10 0.00 0.00 0.00 0.00 0.00 0.00 0.00 0.00 0.00 0.00 0.00 0.00 0.00 0.00 0.00 0.00 0.00 0.00 0.00 0.00 0.00 0.00 0.00 0.00 0.00 0.00 0.00 0.00 0.00 0.00 0.00
0.00 0.00 0.00 0.00 0.00 0.00 0.00 0.00 0.00 0.00 0.00 0.00 0.00 0.00 0.00 0.03 0.04 0.02 0.00 0.00 0.00 0.00 0.00 0.00 0.00 0.00 0.00 0.00 0.00 0.00 0.00 0.00 0.00 0.00 0.00 0.00 0.00 0.00 0.00 0.00 0.00 0.00 0.00 0.00 0.00 0.00 0.00 0.00 0.00
0.00 0.00 0.00 0.00 0.00 0.00 0.00 0.00 0.00 0.00 0.00 0.00 0.00 0.02 0.03 0.01 0.00 0.00 0.00 0.00 0.00 0.00 0.00 0.00 0.00 0.00 0.00 0.00 0.00 0.00 0.00 0.00 0.00 0.00 0.00 0.00 0.00 0.00 0.00 0.00 0.00 0.00 0.00 0.00 0.00 0.00 0.00 0.00 0.00
0.00 0.00 0.00 0.00 0.00 0.00 0.00 0.00 0.00 0.00 0.00 0.01 0.05 0.05 0.05 0.00 0.00 0.00 0.00 0.00 0.00 0.00 0.00 0.00 0.00 0.00 0.00 0.00 0.00 0.00 0.00 0.00 0.00 0.00 0.00 0.00 0.00 0.00 0.00 0.00 0.00 0.00 0.00 0.00 0.00 0.00 0.00 0.00 0.00
0.00 0.00 0.00 0.00 0.00 0.00 0.00 0.00 0.00 0.00 0.00 0.00 0.03 0.02 0.02 0.00 0.00 0.00 0.00 0.00 0.00 0.00 0.00 0.00 0.00 0.00 0.00 0.00 0.00 0.00 0.00 0.00 0.00 0.00 0.00 0.00 0.00 0.00 0.00 0.00 0.00 0.00 0.00 0.00 0.00 0.00 0.00 0.00 0.00
0.00 0.00 0.00 0.00 0.00 0.00 0.00 0.00 0.00 0.00 0.00 0.00 0.00 0.01 0.02 0.00 0.00 0.00 0.00 0.00 0.00 0.00 0.00 0.00 0.00 0.00 0.00 0.00 0.00 0.00 0.00 0.00 0.00 0.00 0.00 0.00 0.00 0.00 0.00 0.00 0.00 0.00 0.00 0.00 0.00 0.00 0.00 0.00 0.00
0.00 0.00 0.00 0.00 0.00 0.00 0.00 0.00 0.00 0.00 0.00 0.00 0.00 0.00 0.00 0.00 0.00 0.00 0.00 0.00 0.00 0.00 0.00 0.00 0.00 0.00 0.00 0.00 0.00 0.00 0.00 0.00 0.00 0.00 0.00 0.00 0.00 0.00 0.00 0.00 0.00 0.00 0.00 0.00 0.00 0.00 0.00 0.00 0.00
0.00 0.00 0.00 0.00 0.00 0.00 0.00 0.00 0.00 0.00 0.00 0.00 0.00 0.00 0.00 0.00 0.00 0.00 0.00 0.00 0.00 0.00 0.00 0.00 0.00 0.00 0.00 0.00 0.00 0.00 0.00 0.00 0.00 0.00 0.00 0.00 0.00 0.00 0.00 0.00 0.00 0.00 0.00 0.00 0.00 0.00 0.00 0.00 0.00
0.00 0.00 0.00 0.00 0.00 0.00 0.00 0.00 0.00 0.00 0.00 0.00 0.00 0.00 0.00 0.00 0.00 0.00 0.00 0.00 0.00 0.00 0.00 0.00 0.00 0.00 0.00 0.00 0.00 0.00 0.00 0.00 0.00 0.00 0.00 0.00 0.00 0.00 0.00 0.00 0.00 0.00 0.00 0.00 0.00 0.00 0.00 0.00 0.00
0.00 0.00 0.00 0.00 0.00 0.00 0.00 0.00 0.00 0.00 0.00 0.00 0.00 0.00 0.00 0.00 0.00 0.00 0.00 0.00 0.00 0.00 0.00 0.00 0.00 0.00 0.00 0.00 0.00 0.00 0.00 0.00 0.00 0.00 0.00 0.00 0.00 0.00 0.00 0.00 0.00 0.00 0.00 0.00 0.00 0.00 0.00 0.00 0.00
0.00 0.00 0.00 0.00 0.00 0.00 0.00 0.00 0.00 0.00 0.00 0.00 0.00 0.00 0.00 0.00 0.00 0.00 0.00 0.00 0.00 0.00 0.00 0.00 0.00 0.00 0.00 0.00 0.00 0.00 0.00 0.00 0.00 0.00 0.00 0.00 0.00 0.00 0.00 0.00 0.00 0.00 0.00 0.00 0.00 0.00 0.00 0.00 0.00
0.00 0.00 0.00 0.00 0.00 0.00 0.00 0.00 0.00 0.00 0.00 0.00 0.00 0.00 0.00 0.00 0.00 0.00 0.00 0.00 0.00 0.00 0.00 0.00 0.00 0.00 0.00 0.00 0.00 0.00 0.00 0.00 0.00 0.00 0.00 0.00 0.00 0.00 0.00 0.00 0.00 0.00 0.00 0.00 0.00 0.00 0.00 0.00 0.00
0.00 0.00 0.00 0.00 0.00 0.00 0.00 0.00 0.00 0.00 0.00 0.00 0.00 0.00 0.00 0.00 0.00 0.00 0.00 0.00 0.00 0.00 0.00 0.00 0.00 0.00 0.00 0.00 0.00 0.00 0.00 0.00 0.00 0.00 0.00 0.00 0.00 0.00 0.00 0.00 0.00 0.00 0.00 0.00 0.00 0.00 0.00 0.00 0.00
0.00 0.00 0.00 0.00 0.00 0.00 0.00 0.00 0.00 0.00 0.00 0.00 0.00 0.00 0.00 0.00 0.00 0.00 0.00 0.00 0.00 0.00 0.01 0.00 0.00 0.00 0.00 0.00 0.00 0.00 0.00 0.00 0.00 0.00 0.00 0.00 0.00 0.00 0.00 0.00 0.00 0.00 0.00 0.00 0.00 0.00 0.00 0.00 0.00
0.00 0.00 0.00 0.00 0.00 0.00 0.00 0.00 0.00 0.00 0.00 0.00 0.00 0.00 0.00 0.00 0.00 0.00 0.02 0.06 0.04 0.03 0.01 0.00 0.00 0.00 0.00 0.00 0.00 0.00 0.00 0.00 0.00 0.00 0.00 0.00 0.00 0.00 0.00 0.00 0.00 0.00 0.00 0.00 0.00 0.00 0.00 0.00 0.00
0.00 0.00 0.00 0.00 0.00 0.00 0.00 0.00 0.00 0.00 0.00 0.00 0.00 0.00 0.00 0.00 0.03 0.06 0.05 0.11 0.06 0.03 0.01 0.01 0.01 0.00 0.00 0.00 0.00 0.00 0.00 0.00 0.00 0.00 0.00 0.00 0.00 0.00 0.00 0.00 0.00 0.00 0.00 0.00 0.00 0.00 0.00 0.00 0.00
0.00 0.00 0.00 0.00 0.00 0.00 0.00 0.00 0.00 0.00 0.00 0.00 0.00 0.00 0.00 0.00 0.05 0.04 0.08 0.13 0.04 0.02 0.02 0.02 0.01 0.01 0.00 0.00 0.00 0.00 0.00 0.00 0.00 0.00 0.00 0.00 0.00 0.00 0.00 0.00 0.00 0.00 0.00 0.00 0.00 0.00 0.00 0.00 0.00
0.00 0.00 0.00 0.00 0.00 0.00 0.00 0.00 0.00 0.00 0.00 0.00 0.00 0.00 0.00 0.00 0.01 0.01 0.12 0.12 0.04 0.03 0.03 0.03 0.05 0.04 0.01 0.00 0.00 0.00 0.00 0.00 0.00 0.00 0.00 0.00 0.00 0.00 0.00 0.00 0.00 0.00 0.00 0.00 0.00 0.00 0.00 0.00 0.00
0.00 0.00 0.00 0.00 0.00 0.00 0.00 0.00 0.00 0.00 0.00 0.00 0.01 0.00 0.00 0.00 0.01 0.04 0.10 0.07 0.03 0.01 0.03 0.08 0.06 0.01 0.01 0.00 0.00 0.00 0.00 0.00 0.00 0.00 0.00 0.00 0.00 0.00 0.00 0.00 0.00 0.00 0.00 0.00 0.00 0.00 0.00 0.00 0.00
0.00 0.00 0.00 0.00 0.00 0.00 0.00 0.00 0.00 0.00 0.00 0.00 0.01 0.00 0.00 0.00 0.00 0.01 0.04 0.04 0.02 0.06 0.15 0.11 0.03 0.01 0.00 0.00 0.00 0.00 0.00 0.00 0.00 0.00 0.00 0.00 0.00 0.00 0.00 0.00 0.00 0.00 0.00 0.00 0.00 0.00 0.00 0.00 0.00
0.00 0.00 0.00 0.00 0.00 0.00 0.00 0.00 0.00 0.00 0.00 0.00 0.00 0.00 0.00 0.00 0.00 0.00 0.01 0.04 0.09 0.13 0.14 0.03 0.01 0.00 0.00 0.00 0.00 0.00 0.00 0.00 0.00 0.00 0.00 0.00 0.00 0.00 0.00 0.00 0.00 0.00 0.00 0.00 0.00 0.00 0.00 0.01 0.00
0.00 0.00 0.00 0.00 0.00 0.00 0.00 0.00 0.00 0.00 0.00 0.00 0.00 0.00 0.00 0.00 0.00 0.02 0.08 0.19 0.19 0.11 0.03 0.01 0.00 0.00 0.00 0.00 0.00 0.00 0.00 0.00 0.00 0.00 0.00 0.00 0.00 0.00 0.00 0.00 0.00 0.00 0.00 0.00 0.00 0.00 0.00 0.01 0.00
0.00 0.00 0.00 0.00 0.00 0.00 0.00 0.00 0.00 0.00 0.00 0.00 0.00 0.00 0.00 0.00 0.00 0.09 0.20 0.24 0.13 0.04 0.01 0.00 0.00 0.00 0.00 0.00 0.00 0.00 0.00 0.00 0.00 0.00 0.00 0.00 0.00 0.00 0.00 0.00 0.00 0.00 0.00 0.00 0.00 0.00 0.00 0.00 0.00
0.00 0.00 0.00 0.00 0.00 0.00 0.00 0.00 0.00 0.00 0.00 0.00 0.00 0.00 0.00 0.01 0.06 0.22 0.22 0.14 0.08 0.02 0.01 0.00 0.00 0.00 0.00 0.00 0.00 0.00 0.00 0.00 0.00 0.00 0.00 0.00 0.00 0.00 0.00 0.00 0.00 0.00 0.00 0.00 0.00 0.00 0.00 0.00 0.00
0.00 0.00 0.00 0.00 0.00 0.00 0.00 0.00 0.00 0.00 0.00 0.00 0.00 0.00 0.00 0.03 0.10 0.13 0.12 0.07 0.03 0.00 0.00 0.00 0.00 0.00 0.00 0.00 0.00 0.00 0.00 0.00 0.00 0.00 0.00 0.00 0.00 0.00 0.00 0.00 0.00 0.00 0.00 0.00 0.00 0.00 0.00 0.00 0.00
0.00 0.00 0.00 0.00 0.00 0.00 0.00 0.00 0.00 0.00 0.00 0.00 0.00 0.00 0.00 0.00 0.02 0.04 0.02 0.01 0.00 0.00 0.00 0.00 0.00 0.00 0.00 0.00 0.00 0.00 0.00 0.00 0.00 0.00 0.00 0.00 0.00 0.00 0.00 0.00 0.00 0.00 0.00 0.00 0.00 0.00 0.00 0.00 0.00
0.00 0.00 0.00 0.00 0.00 0.00 0.00 0.00 0.00 0.00 0.00 0.00 0.00 0.00 0.00 0.00 0.00 0.00 0.00 0.00 0.00 0.00 0.00 0.00 0.00 0.00 0.00 0.00 0.00 0.00 0.00 0.00 0.00 0.00 0.00 0.00 0.00 0.00 0.00 0.00 0.00 0.00 0.00 0.00 0.00 0.00 0.00 0.00 0.00
0.00 0.00 0.00 0.00 0.00 0.00 0.00 0.00 0.00 0.00 0.00 0.00 0.00 0.00 0.00 0.00 0.00 0.00 0.00 0.00 0.00 0.00 0.00 0.00 0.00 0.00 0.00 0.00 0.00 0.00 0.00 0.00 0.00 0.00 0.00 0.00 0.00 0.00 0.00 0.00 0.00 0.00 0.00 0.00 0.00 0.00 0.00 0.00 0.00
0.00 0.00 0.00 0.00 0.00 0.00 0.00 0.00 0.00 0.00 0.00 0.00 0.00 0.00 0.00 0.00 0.00 0.00 0.00 0.00 0.00 0.00 0.00 0.00 0.00 0.00 0.00 0.00 0.00 0.00 0.00 0.00 0.00 0.00 0.00 0.00 0.00 0.00 0.00 0.00 0.00 0.00 0.00 0.00 0.00 0.00 0.00 0.00 0.00
0.00 0.00 0.00 0.00 0.00 0.00 0.00 0.00 0.00 0.00 0.00 0.00 0.00 0.00 0.00 0.00 0.00 0.00 0.00 0.00 0.00 0.00 0.00 0.00 0.00 0.00 0.00 0.00 0.00 0.00 0.00 0.00 0.00 0.00 0.00 0.00 0.00 0.00 0.00 0.00 0.00 0.00 0.00 0.00 0.00 0.00 0.00 0.00 0.00
MSLP
1011.18 1011.31 1011.65 1011.86 1013.18 1014.41 1015.57 1015.70 1015.47 1015.70 1015.60 1015.31 1015.28 1015.11 1015.36 1015.93 1016.57 1016.11 1015.47 1015.10 1015.16 1015.41 1015.23 1015.19 1015.26 1015.54 1015.66 1015.75 1015.81 1015.92 1016.09 1016.12 1016.19 1016.29 1016.50 1016.59 1016.80 1016.95 1017.04 1017.10 1017.05 1016.98 1016.98 1016.98 1016.89 1016.78 1016.72 1016.65 1016.66
1011.17 1011.51 1011.81 1012.53 1014.04 1015.44 1016.09 1015.56 1015.46 1015.33 1015.10 1015.40 1015.74 1015.15 1014.66 1015.69 1015.74 1015.42 1015.59 1015.56 1015.41 1015.64 1015.60 1015.50 1015.43 1015.36 1015.75 1015.94 1016.16 1016.34 1016.40 1016.47 1016.42 1016.66 1016.72 1016.84 1016.91 1017.03 1017.24 1017.26 1017.23 1017.16 1017.07 1017.03 1017.00 1016.89 1016.84 1016.75 1016.71
1010.96 1011.12 1012.18 1013.25 1014.94 1015.28 1015.31 1015.19 1015.08 1015.07 1015.17 1015.29 1015.18 1015.00 1014.84 1014.56 1014.42 1014.93 1015.48 1015.54 1015.42 1015.66 1015.79 1015.66 1015.64 1015.60 1015.95 1016.24 1016.44 1016.60 1016.72 1016.80 1016.86 1016.92 1017.04 1017.02 1017.11 1017.26 1017.45 1017.38 1017.35 1017.28 1017.18 1017.12 1017.06 1016.95 1016.87 1016.81 1016.67
1010.96 1011.59 1012.79 1013.54 1014.66 1014.44 1014.39 1014.07 1014.86 1015.51 1015.28 1014.85 1014.63 1014.42 1014.11 1013.42 1013.67 1014.47 1015.09 1015.19 1015.57 1015.87 1015.91 1015.88 1015.98 1016.11 1016.22 1016.58 1016.65 1016.90 1016.96 1017.04 1017.13 1017.25 1017.36 1017.33 1017.35 1017.54 1017.66 1017.70 1017.58 1017.50 1017.48 1017.44 1017.38 1017.26 1017.08 1016.93 1016.78
1011.28 1012.20 1013.32 1014.02 1014.23 1013.83 1013.86 1013.60 1014.49 1015.32 1015.10 1014.52 1014.26 1013.90 1013.82 1013.84 1013.95 1014.61 1015.00 1015.29 1015.60 1016.07 1015.92 1016.05 1016.33 1016.42 1016.63 1016.77 1016.97 1017.21 1017.24 1017.43 1017.46 1017.63 1017.64 1017.77 1017.83 1017.86 1018.02 1018.03 1017.92 1017.85 1017.85 1017.81 1017.68 1017.54 1017.47 1017.33 1017.14
1011.85 1012.86 1013.95 1014.15 1013.97 1013.54 1013.50 1013.28 1013.93 1014.55 1014.45 1013.69 1013.69 1014.06 1014.59 1014.48 1014.50 1014.99 1015.21 1015.49 1015.60 1016.07 1016.27 1016.17 1016.36 1016.76 1016.97 1016.97 1017.36 1017.53 1017.57 1017.83 1018.03 1018.06 1018.16 1018.19 1018.28 1018.32 1018.27 1018.38 1018.28 1018.22 1018.24 1018.19 1017.99 1017.88 1017.72 1017.60 1017.48
1011.98 1013.21 1013.90 1013.68 1013.79 1013.50 1013.19 1013.17 1013.40 1013.38 1013.62 1013.35 1012.94 1013.95 1014.66 1014.81 1014.90 1015.12 1015.37 1015.68 1015.74 1016.10 1016.51 1016.57 1016.75 1017.16 1017.32 1017.21 1017.57 1017.77 1018.02 1018.12 1018.37 1018.51 1018.64 1018.55 1018.59 1018.50 1018.55 1018.60 1018.59 1018.55 1018.46 1018.38 1018.20 1018.11 1017.96 1017.82 1017.66
1011.78 1012.83 1013.60 1013.18 1013.00 1013.13 1012.55 1012.83 1012.54 1012.73 1012.75 1012.55 1012.43 1013.34 1014.31 1014.30 1014.80 1015.23 1015.65 1016.14 1016.40 1016.76 1016.93 1017.13 1017.23 1017.49 1017.65 1017.60 1017.88 1018.00 1018.28 1018.39 1018.58 1018.72 1019.00 1018.96 1019.02 1018.89 1018.75 1018.97 1018.81 1018.65 1018.53 1018.38 1018.40 1018.25 1018.03 1018.01 1017.80
1011.35 1012.46 1013.16 1012.64 1012.47 1012.52 1012.40 1012.59 1012.41 1011.95 1012.36 1012.17 1012.29 1012.53 1012.86 1014.12 1015.00 1015.83 1016.31 1016.66 1016.97 1017.36 1017.48 1017.47 1017.59 1017.72 1017.76 1017.87 1017.91 1018.14 1018.39 1018.45 1018.92 1018.96 1019.19 1019.22 1019.23 1019.10 1018.96 1018.84 1018.80 1018.66 1018.70 1018.64 1018.57 1018.40 1018.20 1018.09 1017.97
1011.37 1012.39 1012.10 1011.37 1011.16 1011.33 1011.82 1011.91 1011.99 1012.19 1012.37 1012.49 1012.50 1012.88 1013.20 1014.17 1014.93 1015.57 1016.27 1016.88 1017.27 1017.59 1017.89 1017.69 1017.49 1017.62 1017.61 1017.72 1018.07 1018.40 1018.54 1018.96 1019.03 1019.17 1019.25 1019.34 1019.28 1019.14 1019.17 1019.09 1019.02 1019.02 1018.85 1018.78 1018.70 1018.54 1018.41 1018.20 1018.03
1011.24 1011.45 1010.98 1010.26 1010.10 1010.28 1010.78 1011.33 1011.18 1011.70 1012.36 1011.81 1011.78 1012.75 1013.28 1014.30 1015.23 1015.86 1016.25 1016.65 1016.72 1017.17 1017.42 1017.31 1017.19 1017.27 1017.33 1017.71 1018.07 1018.42 1018.81 1019.02 1019.20 1019.32 1019.36 1019.31 1019.34 1019.27 1019.21 1019.26 1019.22 1019.16 1019.00 1019.00 1018.82 1018.65 1018.40 1018.15 1017.86
1010.98 1010.45 1010.21 1009.38 1009.46 1009.92 1010.37 1010.21 1010.82 1010.95 1010.49 1010.65 1011.16 1011.85 1012.95 1013.96 1014.65 1015.28 1015.81 1016.42 1016.90 1017.07 1016.99 1017.31 1017.67 1017.97 1018.13 1018.30 1018.58 1018.86 1019.05 1019.28 1019.34 1019.32 1019.31 1019.28 1019.42 1019.48 1019.52 1019.40 1019.35 1019.29 1019.22 1019.10 1018.92 1018.63 1018.31 1017.99 1017.62
1010.50 1010.08 1009.66 1009.26 1009.40 1009.51 1009.53 1009.59 1009.99 1010.08 1009.96 1010.01 1010.95 1012.06 1012.77 1013.81 1014.62 1015.25 1015.78 1016.35 1016.70 1017.01 1017.29 1017.69 1017.94 1018.28 1018.60 1018.80 1019.02 1018.99 1019.08 1019.03 1019.16 1019.21 1019.24 1019.30 1019.54 1019.65 1019.60 1019.64 1019.58 1019.50 1019.36 1019.18 1018.97 1018.69 1018.30 1017.93 1017.49
1010.30 1010.06 1009.73 1009.12 1009.21 1009.31 1009.70 1009.83 1009.90 1009.29 1009.93 1010.51 1011.07 1011.95 1012.76 1013.39 1014.22 1015.19 1015.71 1016.13 1017.59 1019.01 1019.14 1018.68 1018.56 1018.52 1018.71 1019.07 1019.14 1019.19 1019.05 1019.25 1019.39 1019.50 1019.66 1019.67 1019.75 1019.84 1019.89 1019.87 1019.78 1019.62 1019.50 1019.24 1019.02 1018.68 1018.31 1017.85 1017.32
1010.56 1010.47 1009.73 1009.38 1009.13 1009.29 1009.32 1010.29 1009.96 1009.56 1009.75 1010.65 1011.32 1011.83 1012.65 1013.45 1014.26 1014.62 1016.23 1018.45 1017.98 1018.37 1018.80 1018.85 1019.04 1019.12 1019.41 1019.64 1019.64 1019.63 1019.52 1019.60 1019.63 1019.72 1019.75 1019.75 1019.76 1019.87 1019.99 1020.09 1020.02 1019.87 1019.64 1019.38 1019.07 1018.63 1018.22 1017.76 1017.15
1011.31 1011.34 1011.28 1009.86 1009.92 1009.60 1009.56 1010.15 1009.37 1009.91 1010.12 1010.89 1011.39 1012.00 1012.86 1013.93 1015.65 1016.04 1016.62 1017.25 1018.35 1019.52 1019.88 1019.54 1019.00 1019.45 1019.75 1020.14 1020.27 1020.21 1020.14 1020.00 1020.01 1019.89 1019.85 1019.84 1019.85 1019.85 1019.91 1019.93 1019.97 1019.86 1019.68 1019.53 1019.22 1018.73 1018.26 1017.76 1017.16
1012.34 1012.19 1011.91 1011.06 1010.63 1010.58 1010.73 1011.16 1011.15 1010.79 1011.03 1011.32 1011.80 1012.39 1013.31 1014.59 1015.50 1015.91 1016.98 1017.71 1018.28 1019.00 1019.37 1019.96 1020.03 1019.86 1020.00 1020.33 1020.51 1020.51 1020.37 1020.18 1020.03 1019.91 1019.80 1019.73 1019.75 1019.82 1019.92 1020.05 1020.00 1019.91 1019.79 1019.59 1019.28 1018.85 1018.44 1017.86 1017.24
1012.72 1012.54 1012.00 1011.90 1011.77 1011.68 1011.86 1012.64 1012.64 1011.90 1012.02 1012.74 1013.24 1013.80 1014.70 1015.24 1015.73 1015.90 1016.90 1018.31 1019.16 1019.63 1020.13 1020.21 1020.28 1020.37 1020.27 1020.36 1020.63 1020.91 1020.50 1020.05 1019.69 1019.66 1019.55 1019.65 1019.84 1019.82 1019.99 1020.13 1020.08 1019.97 1019.89 1019.57 1019.15 1018.77 1018.24 1017.73 1017.10
1012.27 1012.30 1012.29 1011.90 1011.81 1012.42 1013.56 1013.91 1013.90 1013.42 1013.04 1013.92 1014.29 1015.02 1015.55 1016.02 1016.57 1017.13 1017.83 1018.81 1019.60 1020.05 1020.48 1021.01 1020.93 1021.03 1021.22 1021.07 1020.95 1021.30 1020.53 1020.25 1020.05 1019.89 1019.73 1019.88 1019.97 1019.94 1019.99 1020.10 1020.05 1019.94 1019.90 1019.58 1019.11 1018.69 1018.16 1017.50 1016.87
1011.93 1012.19 1012.30 1012.14 1012.22 1012.86 1013.95 1014.59 1014.81 1014.50 1014.75 1014.88 1015.30 1015.18 1015.50 1016.43 1016.96 1017.47 1018.41 1019.15 1020.05 1020.63 1020.85 1021.16 1021.53 1021.79 1021.88 1021.92 1021.11 1020.96 1021.01 1020.62 1020.46 1020.26 1020.04 1020.03 1019.98 1019.93 1019.96 1020.11 1019.99 1019.90 1019.69 1019.32 1018.99 1018.65 1018.03 1017.54 1016.89
1012.03 1012.18 1012.38 1012.73 1012.87 1013.50 1014.30 1015.05 1015.40 1015.48 1015.74 1015.53 1015.49 1015.64 1016.39 1016.93 1017.37 1017.90 1018.69 1019.61 1019.92 1020.93 1022.05 1021.22 1021.99 1021.85 1021.15 1020.86 1021.19 1021.02 1020.70 1020.85 1020.82 1020.67 1020.31 1020.26 1020.25 1020.08 1020.03 1019.93 1019.91 1019.78 1019.62 1019.40 1019.06 1018.57 1018.25 1017.65 1016.98
1012.16 1012.19 1012.69 1013.19 1013.85 1014.69 1015.07 1016.31 1016.29 1016.55 1016.71 1016.77 1016.90 1016.97 1017.37 1017.74 1018.14 1018.53 1019.18 1019.79 1020.30 1020.74 1021.18 1019.98 1021.47 1021.88 1021.39 1021.46 1021.62 1021.54 1021.71 1021.74 1021.51 1020.96 1020.74 1020.43 1020.16 1020.10 1019.89 1019.87 1019.77 1019.58 1019.42 1019.20 1018.93 1018.45 1018.23 1017.89 1017.27
1012.40 1012.57 1013.43 1014.05 1014.88 1015.61 1016.12 1016.72 1016.82 1017.03 1017.57 1017.99 1018.12 1018.02 1018.02 1018.27 1018.49 1018.98 1019.58 1020.04 1020.06 1019.67 1019.88 1020.32 1020.96 1021.90 1021.82 1021.11 1021.74 1021.79 1021.84 1021.99 1021.52 1020.94 1020.60 1020.34 1019.98 1020.00 1019.94 1019.82 1019.56 1019.28 1019.16 1018.93 1018.62 1018.29 1018.10 1017.92 1017.61
1012.72 1013.44 1014.46 1015.47 1016.16 1017.14 1017.07 1017.39 1017.51 1017.51 1017.85 1018.37 1018.81 1018.93 1019.04 1019.23 1019.58 1019.99 1020.63 1020.91 1021.42 1021.33 1020.40 1021.52 1021.81 1022.13 1021.69 1021.58 1022.07 1021.99 1021.82 1022.03 1021.37 1021.14 1020.68 1020.47 1020.31 1020.11 1019.98 1019.75 1019.44 1019.28 1019.04 1018.63 1018.33 1018.14 1017.93 1017.65 1017.34
1013.47 1014.84 1016.17 1017.34 1017.89 1018.15 1017.69 1017.90 1017.57 1017.39 1017.77 1018.39 1019.23 1019.75 1020.16 1020.28 1020.59 1021.28 1021.63 1022.10 1022.62 1022.78 1022.81 1022.63 1022.26 1022.33 1022.19 1022.52 1022.25 1022.14 1022.23 1022.26 1021.82 1021.26 1020.92 1020.78 1020.74 1020.36 1020.00 1019.77 1019.47 1019.20 1018.74 1018.38 1018.23 1017.88 1017.53 1017.25 1016.93
1014.25 1015.53 1017.04 1017.96 1019.11 1018.84 1018.22 1018.08 1017.72 1017.95 1018.33 1018.96 1020.07 1020.81 1021.31 1021.58 1021.86 1022.32 1022.77 1023.01 1023.12 1022.84 1023.13 1022.95 1022.85 1022.70 1022.74 1022.72 1022.64 1022.50 1022.28 1022.05 1021.61 1021.32 1021.28 1021.12 1020.80 1020.40 1020.01 1019.74 1019.40 1019.00 1018.62 1018.20 1017.90 1017.53 1017.21 1016.89 1016.54
1014.85 1016.00 1016.87 1018.07 1019.47 1019.78 1018.91 1018.36 1018.20 1018.73 1019.42 1020.20 1021.17 1021.85 1022.58 1022.92 1023.10 1023.33 1023.45 1023.50 1023.40 1023.41 1023.16 1023.59 1023.47 1023.38 1023.29 1023.17 1022.78 1022.48 1022.23 1021.90 1021.65 1021.49 1021.35 1020.96 1020.55 1020.19 1019.81 1019.55 1019.11 1018.73 1018.45 1018.01 1017.71 1017.35 1016.95 1016.63 1016.24
1015.29 1016.46 1017.46 1018.78 1020.06 1020.46 1019.70 1019.32 1019.03 1019.69 1020.32 1021.14 1022.10 1022.78 1023.28 1023.39 1023.36 1023.41 1023.57 1023.93 1023.82 1023.84 1023.79 1023.78 1023.85 1023.95 1023.68 1023.32 1022.92 1022.53 1022.20 1021.91 1021.68 1021.41 1021.07 1020.69 1020.23 1019.85 1019.49 1019.16 1018.91 1018.65 1018.25 1017.88 1017.54 1017.14 1016.84 1016.53 1016.14
1016.47 1017.40 1018.66 1019.77 1020.58 1021.07 1020.88 1019.98 1019.25 1019.75 1020.61 1021.60 1022.68 1023.44 1023.74 1023.89 1023.87 1023.70 1023.43 1023.40 1023.89 1024.35 1024.46 1024.56 1024.55 1024.38 1023.92 1023.44 1023.04 1022.65 1022.17 1021.80 1021.50 1021.17 1020.73 1020.30 1019.78 1019.41 1019.15 1018.86 1018.65 1018.45 1018.09 1017.74 1017.47 1017.17 1016.92 1016.59 1016.26
1017.13 1018.16 1019.23 1020.63 1021.38 1021.64 1021.66 1020.11 1019.71 1019.89 1020.92 1021.97 1022.81 1023.41 1024.05 1024.32 1024.49 1024.64 1024.24 1024.14 1024.64 1024.92 1024.88 1024.80 1024.51 1024.34 1023.94 1023.46 1023.08 1022.62 1022.08 1021.63 1021.25 1020.86 1020.39 1019.91 1019.49 1019.06 1018.86 1018.57 1018.39 1018.16 1017.94 1017.62 1017.48 1017.23 1017.01 1016.73 1016.42
Thickness
5803 5803 5801 5791 5755 5737 5716 5732 5746 5736 5734 5747 5750 5743 5735 5726 5722 5723 5756 5765 5767 5765 5766 5767 5768 5764 5762 5762 5762 5761 5759 5759 5759 5758 5756 5755 5753 5752 5752 5752 5752 5753 5753 5752 5752 5753 5752 5753 5752
5802 5799 5793 5773 5733 5710 5714 5739 5740 5744 5750 5748 5741 5741 5740 5729 5743 5751 5752 5760 5762 5760 5761 5763 5764 5765 5760 5758 5756 5755 5754 5754 5755 5753 5752 5751 5750 5750 5747 5747 5747 5747 5748 5748 5747 5748 5748 5749 5748
5802 5800 5778 5749 5716 5716 5719 5739 5747 5749 5751 5746 5742 5749 5743 5741 5760 5756 5757 5759 5761 5760 5758 5759 5759 5760 5756 5753 5751 5750 5749 5748 5748 5749 5747 5747 5746 5745 5742 5743 5743 5742 5743 5743 5743 5743 5744 5744 5745
5795 5786 5770 5741 5735 5744 5744 5755 5750 5742 5748 5756 5755 5746 5758 5771 5766 5764 5762 5761 5761 5756 5755 5755 5754 5753 5752 5748 5748 5745 5744 5743 5743 5741 5740 5740 5740 5738 5736 5736 5737 5736 5736 5736 5735 5736 5738 5738 5739
5788 5770 5740 5733 5737 5750 5755 5763 5752 5739 5738 5749 5755 5752 5754 5765 5769 5766 5763 5761 5758 5752 5753 5752 5749 5747 5745 5744 5743 5740 5740 5738 5737 5735 5734 5732 5731 5731 5729 5729 5729 5729 5728 5728 5729 5729 5729 5730 5731
5768 5760 5727 5724 5737 5752 5760 5766 5759 5748 5749 5759 5758 5749 5748 5763 5765 5763 5763 5759 5756 5753 5750 5750 5747 5742 5740 5741 5737 5736 5735 5732 5729 5728 5727 5726 5725 5724 5724 5721 5721 5721 5720 5720 5721 5721 5722 5722 5721
5762 5743 5730 5737 5733 5745 5756 5763 5760 5758 5756 5756 5769 5748 5752 5757 5763 5763 5761 5759 5756 5752 5746 5746 5743 5738 5736 5738 5734 5731 5729 5728 5724 5723 5720 5720 5718 5719 5717 5715 5714 5713 5713 5713 5714 5714 5714 5714 5714
5763 5749 5737 5739 5739 5742 5763 5763 5770 5765 5760 5778 5779 5750 5745 5761 5763 5761 5758 5753 5750 5745 5741 5740 5739 5736 5734 5734 5729 5727 5724 5722 5720 5718 5714 5714 5711 5711 5710 5708 5707 5707 5707 5707 5705 5706 5707 5705 5706
5775 5738 5727 5746 5747 5752 5760 5760 5768 5780 5767 5773 5777 5775 5775 5767 5761 5753 5749 5746 5742 5739 5737 5736 5735 5733 5731 5729 5726 5722 5719 5717 5713 5712 5709 5707 5704 5704 5705 5703 5702 5701 5699 5698 5697 5698 5698 5697 5697
5759 5732 5745 5763 5764 5765 5758 5762 5761 5763 5760 5761 5767 5772 5773 5765 5757 5750 5744 5738 5735 5731 5728 5730 5731 5729 5727 5725 5721 5717 5714 5710 5708 5706 5703 5699 5700 5700 5698 5696 5694 5692 5691 5690 5689 5688 5688 5688 5689
5761 5747 5764 5773 5776 5778 5770 5764 5770 5757 5747 5762 5766 5763 5766 5757 5750 5745 5741 5737 5736 5732 5730 5730 5730 5728 5726 5722 5718 5713 5708 5705 5702 5699 5696 5696 5693 5691 5690 5688 5686 5685 5683 5681 5680 5679 5678 5679 5679
5760 5770 5773 5782 5784 5775 5766 5776 5767 5766 5769 5779 5778 5774 5767 5758 5754 5750 5745 5737 5731 5730 5730 5726 5722 5719 5716 5714 5709 5705 5702 5698 5696 5694 5692 5690 5687 5684 5681 5679 5677 5675 5672 5671 5669 5669 5669 5668 5669
5765 5774 5778 5780 5776 5779 5780 5775 5771 5770 5782 5785 5778 5770 5764 5757 5752 5750 5743 5736 5730 5727 5724 5720 5716 5712 5707 5704 5700 5698 5696 5694 5691 5687 5684 5681 5676 5672 5670 5667 5664 5663 5662 5661 5660 5659 5660 5660 5660
5770 5769 5767 5780 5776 5779 5772 5772 5773 5779 5781 5776 5773 5766 5762 5758 5753 5742 5737 5733 5718 5705 5703 5706 5706 5704 5700 5695 5691 5689 5688 5682 5677 5673 5669 5667 5664 5661 5657 5654 5653 5651 5649 5649 5648 5648 5648 5650 5651
5766 5758 5765 5775 5778 5774 5773 5759 5758 5774 5778 5769 5767 5765 5760 5755 5749 5743 5728 5706 5712 5709 5705 5701 5695 5692 5688 5682 5680 5676 5672 5669 5666 5663 5659 5656 5653 5648 5644 5641 5639 5636 5634 5632 5631 5632 5633 5635 5636
5749 5743 5728 5762 5761 5769 5766 5737 5769 5770 5769 5762 5764 5760 5755 5747 5729 5729 5722 5713 5704 5694 5690 5690 5691 5684 5677 5671 5666 5662 5660 5658 5654 5652 5649 5645 5641 5637 5634 5630 5626 5622 5619 5616 5615 5615 5617 5618 5620
5723 5718 5726 5735 5753 5753 5752 5739 5749 5757 5759 5755 5754 5753 5746 5732 5726 5726 5713 5705 5699 5693 5689 5680 5675 5672 5667 5660 5656 5653 5651 5648 5647 5645 5642 5637 5631 5625 5621 5616 5611 5608 5604 5601 5599 5599 5598 5598 5600
5717 5717 5721 5722 5739 5732 5730 5721 5729 5745 5745 5738 5736 5735 5727 5724 5721 5718 5707 5695 5687 5682 5675 5671 5665 5661 5658 5653 5647 5640 5641 5642 5643 5639 5635 5629 5622 5616 5609 5602 5597 5593 5588 5586 5584 5583 5582 5580 5582
5732 5724 5719 5729 5740 5722 5711 5710 5716 5725 5731 5722 5722 5717 5714 5712 5709 5702 5696 5685 5675 5670 5663 5655 5650 5647 5642 5639 5637 5626 5631 5632 5630 5626 5622 5615 5608 5603 5599 5592 5587 5580 5575 5572 5570 5569 5568 5565 5562
5730 5721 5716 5724 5731 5721 5709 5704 5709 5714 5713 5713 5708 5712 5710 5702 5698 5694 5681 5675 5663 5655 5650 5642 5636 5631 5627 5623 5625 5617 5617 5619 5614 5611 5608 5604 5599 5593 5587 5579 5573 5566 5563 5560 5555 5551 5551 5544 5540
5723 5718 5718 5715 5719 5713 5707 5695 5693 5705 5704 5708 5706 5706 5701 5696 5690 5685 5675 5663 5657 5643 5629 5629 5623 5619 5622 5620 5610 5608 5612 5606 5602 5598 5596 5589 5584 5579 5572 5565 5557 5551 5546 5541 5536 5534 5529 5528 5523
5712 5727 5721 5715 5701 5681 5696 5662 5680 5684 5687 5692 5691 5692 5691 5687 5682 5675 5665 5655 5645 5635 5632 5624 5610 5604 5604 5603 5598 5598 5594 5592 5588 5587 5582 5579 5574 5566 5559 5551 5543 5536 5530 5526 5523 5522 5516 5513 5511
5716 5723 5709 5705 5688 5682 5676 5662 5667 5677 5675 5672 5675 5678 5678 5676 5672 5665 5654 5645 5641 5634 5621 5619 5612 5600 5595 5602 5591 5589 5585 5577 5576 5576 5570 5565 5560 5550 5540 5533 5528 5523 5518 5515 5513 5510 5505 5503 5501
5720 5711 5691 5676 5667 5654 5667 5658 5655 5661 5671 5666 5664 5665 5664 5661 5657 5649 5640 5631 5623 5620 5619 5602 5598 5592 5594 5587 5578 5576 5574 5563 5564 5557 5555 5549 5540 5530 5523 5518 5514 5509 5506 5505 5503 5499 5497 5495 5495
5701 5676 5646 5648 5639 5641 5657 5649 5652 5669 5671 5664 5655 5654 5651 5648 5642 5632 5624 5616 5606 5598 5591 5587 5586 5583 5578 5567 5566 5561 5553 5546 5544 5542 5537 5529 5520 5515 5511 5506 5502 5499 5498 5496 5493 5493 5492 5491 5491
5694 5672 5640 5638 5627 5638 5653 5640 5648 5661 5658 5654 5646 5638 5632 5626 5621 5615 5605 5598 5594 5592 5583 5579 5573 5567 5562 5556 5550 5545 5539 5535 5534 5529 5521 5512 5507 5504 5501 5497 5493 5490 5489 5488 5488 5488 5487 5487 5486
5682 5665 5669 5638 5630 5622 5633 5651 5655 5649 5642 5638 5630 5622 5613 5608 5603 5597 5593 5587 5583 5578 5574 5563 5559 5551 5546 5541 5538 5536 5533 5530 5524 5514 5506 5502 5500 5497 5493 5489 5488 5486 5484 5483 5483 5482 5482 5482 5482
5681 5671 5646 5628 5626 5619 5622 5631 5629 5633 5629 5622 5612 5603 5598 5594 5592 5588 5582 5575 5571 5566 5560 5555 5548 5541 5537 5533 5531 5528 5523 5516 5509 5503 5499 5496 5494 5491 5488 5486 5484 5480 5479 5478 5478 5477 5476 5476 5476
5653 5644 5635 5626 5616 5607 5602 5615 5637 5632 5621 5610 5596 5589 5584 5580 5578 5577 5574 5570 5562 5551 5545 5538 5532 5528 5526 5523 5519 5514 5510 5505 5499 5495 5493 5491 5490 5488 5484 5482 5478 5475 5474 5473 5472 5471 5469 5469 5468
5662 5645 5627 5602 5614 5602 5592 5604 5622 5624 5610 5599 5591 5585 5574 5571 5565 5559 5560 5554 5545 5537 5533 5526 5523 5518 5515 5512 5507 5503 5499 5495 5492 5489 5488 5486 5485 5482 5479 5477 5474 5471 5469 5466 5465 5464 5461 5461 5461